Powrót do katalogu

STARLINK-31765

AktywnyŁącznośćVLEO
NORAD 59604·PAYLOAD·🇺🇸 United States

Wystrzelony Apr 28, 2024 z Cape Canaveral Space Force Station

Loading…

Następne Przeloty (najbliższe 24 godziny)

TLE

ŚwieżeSource: CelesTrak SupGP

Epoka: Sep 14, 2026, 14:49 UTC

1 59604C 24080D   26257.61784722 -.00037097  00000+0 -13438-2 0  2572
2 59604  43.0024  47.3875 0001179 266.6056 246.3624 15.27592663    16

Śledź STARLINK-31765 w czasie rzeczywistym z AllMySat

Download on the App Store